Location: Holyhead Bay
(53.3667°N, 4.6667°W)
Time: 06:59:26
(UTC+00:00)

Meteor 1-14 Rocket - Pass Details

Date: 24 November 2020
Orbit: 834 x 919 km, 81.3° (Epoch: 24 January)

Event Time Altitude Azimuth Distance (km) Brightness Sun altitude
Rises 18:20:52 0° 348° (NNW) 3,520 7.5 -18.8°
Reaches altitude 10° 18:23:23 10° 353° (N) 2,587 6.7 -19.1°
Maximum altitude 18:29:11 56° 71° (ENE) 1,082 4.4 -20.0°
Drops below altitude 10° 18:35:02 10° 149° (SSE) 2,607 6.5 -20.8°
Sets 18:37:34 0° 154° (SSE) 3,548 7.2 -21.2°
